Time,TemperatureF,DewpointF,PressureIn,WindDirection,WindDirectionDegrees,WindSpeedMPH,WindSpeedGustMPH,Humidity,HourlyPrecipIn,Conditions,Clouds,dailyrainin,SolarRadiationWatts/m^2,SoftwareType,DateUTC
2013-03-12 00:00:00,38.5,34.1,29.86,WNW,295,9.0,15.0,84,0.00,,---,0.00,0.00,VWS V14.00,2013-03-12 04:00:00,
2013-03-12 00:02:00,38.5,34.1,29.86,NW,304,9.0,15.0,84,0.00,,---,0.00,0.00,VWS V14.00,2013-03-12 04:02:00,
2013-03-12 00:07:00,38.5,34.1,29.87,NW,311,13.0,13.0,84,0.00,,---,0.00,0.00,VWS V14.00,2013-03-12 04:07:00,
2013-03-12 00:10:00,38.5,34.1,29.87,WNW,301,8.0,13.0,84,0.00,,---,0.00,0.00,VWS V14.00,2013-03-12 04:10:00,
2013-03-12 00:15:00,38.5,34.1,29.87,WSW,255,6.0,10.0,84,0.00,,---,0.00,0.00,VWS V14.00,2013-03-12 04:15:00,
2013-03-12 00:20:00,38.5,34.1,29.87,West,259,8.0,11.0,84,0.00,,---,0.00,0.00,VWS V14.00,2013-03-12 04:20:00,
2013-03-12 00:25:00,38.5,34.1,29.88,West,278,7.0,12.0,84,0.00,,---,0.00,0.00,VWS V14.00,2013-03-12 04:25:00,
2013-03-12 00:32:00,38.4,34.0,29.88,WNW,293,12.0,13.0,84,0.00,,---,0.00,0.00,VWS V14.00,2013-03-12 04:32:00,
2013-03-12 00:37:00,38.4,34.0,29.88,WNW,285,8.0,14.0,84,0.00,,---,0.00,0.00,VWS V14.00,2013-03-12 04:37:00,
2013-03-12 00:42:00,38.4,34.0,29.88,WNW,296,7.0,9.0,84,0.00,,---,0.00,0.00,VWS V14.00,2013-03-12 04:42:00,
2013-03-12 00:47:00,38.4,33.7,29.88,NW,321,11.0,16.0,83,0.00,,---,0.00,0.00,VWS V14.00,2013-03-12 04:47:00,
2013-03-12 00:52:00,38.3,33.6,29.88,West,279,8.0,15.0,83,0.00,,---,0.00,0.00,VWS V14.00,2013-03-12 04:52:00,
2013-03-12 00:57:00,38.3,33.6,29.88,West,278,15.0,15.0,83,0.00,,---,0.00,0.00,VWS V14.00,2013-03-12 04:57:00,
2013-03-12 01:02:00,38.2,33.5,29.88,West,278,8.0,13.0,83,0.00,,---,0.00,0.00,VWS V14.00,2013-03-12 05:02:00,
2013-03-12 01:08:00,38.2,33.8,29.88,West,271,8.0,13.0,84,0.00,,---,0.00,0.00,VWS V14.00,2013-03-12 05:08:00,
2013-03-12 01:13:00,38.1,33.4,29.88,NW,306,9.0,14.0,83,0.00,,---,0.00,0.00,VWS V14.00,2013-03-12 05:13:00,
2013-03-12 01:18:00,38.1,33.4,29.88,NW,325,6.0,11.0,83,0.00,,---,0.00,0.00,VWS V14.00,2013-03-12 05:18:00,
2013-03-12 01:23:00,38.0,33.6,29.89,NW,306,8.0,12.0,84,0.00,,---,0.00,0.00,VWS V14.00,2013-03-12 05:23:00,
2013-03-12 01:28:00,37.9,33.5,29.89,NW,317,11.0,19.0,84,0.00,,---,0.00,0.00,VWS V14.00,2013-03-12 05:28:00,
2013-03-12 01:33:00,37.7,33.6,29.88,NW,308,10.0,19.0,85,0.00,,---,0.00,0.00,VWS V14.00,2013-03-12 05:33:00,
2013-03-12 01:38:00,37.6,33.5,29.89,WNW,292,6.0,13.0,85,0.00,,---,0.00,0.00,VWS V14.00,2013-03-12 05:38:00,
2013-03-12 01:43:00,37.5,33.4,29.89,NW,306,8.0,15.0,85,0.00,,---,0.00,0.00,VWS V14.00,2013-03-12 05:43:00,
2013-03-12 01:48:00,37.4,33.0,29.89,NW,313,13.0,22.0,84,0.00,,---,0.00,0.00,VWS V14.00,2013-03-12 05:48:00,
2013-03-12 01:53:00,37.4,33.0,29.89,NNW,331,12.0,15.0,84,0.00,,---,0.00,0.00,VWS V14.00,2013-03-12 05:53:00,
2013-03-12 01:58:00,37.3,32.6,29.89,WNW,293,14.0,18.0,83,0.00,,---,0.00,0.00,VWS V14.00,2013-03-12 05:58:00,
2013-03-12 02:03:00,37.2,32.5,29.89,NW,306,10.0,14.0,83,0.00,,---,0.00,0.00,VWS V14.00,2013-03-12 06:03:00,
2013-03-12 02:08:00,37.0,32.0,29.89,West,272,14.0,23.0,82,0.00,,---,0.00,0.00,VWS V14.00,2013-03-12 06:08:00,
2013-03-12 02:13:00,37.0,32.0,29.89,NW,319,12.0,18.0,82,0.00,,---,0.00,0.00,VWS V14.00,2013-03-12 06:13:00,
2013-03-12 02:18:00,36.9,32.2,29.89,NW,312,8.0,21.0,83,0.00,,---,0.00,0.00,VWS V14.00,2013-03-12 06:18:00,
2013-03-12 02:23:00,36.8,32.1,29.90,WNW,301,14.0,19.0,83,0.00,,---,0.00,0.00,VWS V14.00,2013-03-12 06:23:00,
2013-03-12 02:28:00,36.8,32.1,29.90,NNW,329,9.0,19.0,83,0.00,,---,0.00,0.00,VWS V14.00,2013-03-12 06:28:00,
2013-03-12 02:33:00,36.7,32.0,29.90,NW,304,7.0,16.0,83,0.00,,---,0.00,0.00,VWS V14.00,2013-03-12 06:33:00,
2013-03-12 02:38:00,36.6,32.2,29.90,WSW,254,15.0,15.0,84,0.00,,---,0.00,0.00,VWS V14.00,2013-03-12 06:38:00,
2013-03-12 02:43:00,36.5,32.1,29.90,NW,309,13.0,20.0,84,0.00,,---,0.00,0.00,VWS V14.00,2013-03-12 06:43:00,
2013-03-12 02:48:00,36.5,32.1,29.90,WNW,292,6.0,12.0,84,0.00,,---,0.00,0.00,VWS V14.00,2013-03-12 06:48:00,
2013-03-12 02:53:00,36.5,32.1,29.91,West,263,10.0,12.0,84,0.00,,---,0.00,0.00,VWS V14.00,2013-03-12 06:53:00,
2013-03-12 02:58:00,36.4,32.3,29.91,NW,319,9.0,11.0,85,0.00,,---,0.00,0.00,VWS V14.00,2013-03-12 06:58:00,
2013-03-12 03:03:00,36.4,32.3,29.91,WNW,286,7.0,15.0,85,0.00,,---,0.00,0.00,VWS V14.00,2013-03-12 07:03:00,
2013-03-12 03:08:00,36.3,32.2,29.91,WNW,289,8.0,11.0,85,0.00,,---,0.00,0.00,VWS V14.00,2013-03-12 07:08:00,
2013-03-12 03:13:00,36.2,32.1,29.91,WNW,298,6.0,12.0,85,0.00,,---,0.00,0.00,VWS V14.00,2013-03-12 07:13:00,
2013-03-12 03:18:00,36.2,32.1,29.91,WNW,297,9.0,13.0,85,0.00,,---,0.00,0.00,VWS V14.00,2013-03-12 07:18:00,
2013-03-12 03:23:00,36.2,32.4,29.91,West,275,8.0,12.0,86,0.00,,---,0.00,0.00,VWS V14.00,2013-03-12 07:23:00,
2013-03-12 03:28:00,36.1,32.3,29.91,WNW,295,7.0,12.0,86,0.00,,---,0.00,0.00,VWS V14.00,2013-03-12 07:28:00,
2013-03-12 03:33:00,36.1,32.3,29.91,NW,317,8.0,10.0,86,0.00,,---,0.00,0.00,VWS V14.00,2013-03-12 07:33:00,
2013-03-12 03:38:00,36.1,32.3,29.91,WNW,301,12.0,12.0,86,0.00,,---,0.00,0.00,VWS V14.00,2013-03-12 07:38:00,
2013-03-12 03:43:00,36.0,32.2,29.92,NW,314,7.0,13.0,86,0.00,,---,0.00,0.00,VWS V14.00,2013-03-12 07:43:00,
2013-03-12 03:48:00,36.0,32.2,29.92,WNW,300,9.0,14.0,86,0.00,,---,0.00,0.00,VWS V14.00,2013-03-12 07:48:00,
2013-03-12 03:53:00,36.0,32.2,29.92,NW,315,7.0,11.0,86,0.00,,---,0.00,0.00,VWS V14.00,2013-03-12 07:53:00,
2013-03-12 03:58:00,36.0,32.2,29.92,NNW,329,6.0,12.0,86,0.00,,---,0.00,0.00,VWS V14.00,2013-03-12 07:58:00,
2013-03-12 04:03:00,35.9,31.8,29.92,NNW,331,10.0,14.0,85,0.00,,---,0.00,0.00,VWS V14.00,2013-03-12 08:03:00,
2013-03-12 04:08:00,35.9,31.8,29.92,NW,306,7.0,12.0,85,0.00,,---,0.00,0.00,VWS V14.00,2013-03-12 08:08:00,
2013-03-12 04:13:00,35.9,32.1,29.92,West,272,4.0,12.0,86,0.00,,---,0.00,0.00,VWS V14.00,2013-03-12 08:13:00,
2013-03-12 04:18:00,35.8,32.0,29.92,NW,321,8.0,10.0,86,0.00,,---,0.00,0.00,VWS V14.00,2013-03-12 08:18:00,
2013-03-12 04:23:00,35.7,31.4,29.92,WNW,295,13.0,16.0,84,0.00,,---,0.00,0.00,VWS V14.00,2013-03-12 08:23:00,
2013-03-12 04:28:00,35.7,31.4,29.91,NW,305,9.0,14.0,84,0.00,,---,0.00,0.00,VWS V14.00,2013-03-12 08:28:00,
2013-03-12 04:33:00,35.6,31.2,29.91,NNW,331,10.0,12.0,84,0.00,,---,0.00,0.00,VWS V14.00,2013-03-12 08:33:00,
2013-03-12 04:38:00,35.5,31.1,29.91,NW,313,10.0,13.0,84,0.00,,---,0.00,0.00,VWS V14.00,2013-03-12 08:38:00,
2013-03-12 04:43:00,35.5,30.9,29.91,NW,316,8.0,11.0,83,0.00,,---,0.00,0.00,VWS V14.00,2013-03-12 08:43:00,
2013-03-12 04:48:00,35.5,30.9,29.91,NW,319,6.0,13.0,83,0.00,,---,0.00,0.00,VWS V14.00,2013-03-12 08:48:00,
2013-03-12 04:53:00,35.4,30.8,29.91,NW,317,6.0,16.0,83,0.00,,---,0.00,0.00,VWS V14.00,2013-03-12 08:53:00,
2013-03-12 05:03:00,35.2,30.9,29.92,NW,304,8.0,13.0,84,0.00,,---,0.00,0.00,VWS V14.00,2013-03-12 09:03:00,
2013-03-12 05:09:00,35.2,30.9,29.92,NW,323,9.0,11.0,84,0.00,,---,0.00,0.00,VWS V14.00,2013-03-12 09:09:00,
2013-03-12 05:14:00,35.2,30.9,29.92,WNW,290,7.0,18.0,84,0.00,,---,0.00,0.00,VWS V14.00,2013-03-12 09:14:00,
2013-03-12 05:19:00,35.2,30.9,29.92,WNW,292,6.0,13.0,84,0.00,,---,0.00,0.00,VWS V14.00,2013-03-12 09:19:00,
2013-03-12 05:24:00,35.2,30.6,29.92,WNW,297,7.0,12.0,83,0.00,,---,0.00,0.00,VWS V14.00,2013-03-12 09:24:00,
2013-03-12 05:29:00,35.2,30.6,29.92,WNW,297,8.0,11.0,83,0.00,,---,0.00,0.00,VWS V14.00,2013-03-12 09:29:00,
2013-03-12 05:34:00,35.2,30.6,29.92,WNW,296,7.0,11.0,83,0.00,,---,0.00,0.00,VWS V14.00,2013-03-12 09:34:00,
2013-03-12 05:39:00,35.2,30.6,29.93,WNW,300,6.0,14.0,83,0.00,,---,0.00,0.00,VWS V14.00,2013-03-12 09:39:00,
2013-03-12 05:44:00,35.2,30.6,29.93,West,281,8.0,10.0,83,0.00,,---,0.00,0.00,VWS V14.00,2013-03-12 09:44:00,
2013-03-12 05:49:00,35.2,30.6,29.93,WNW,284,9.0,11.0,83,0.00,,---,0.00,0.00,VWS V14.00,2013-03-12 09:49:00,
2013-03-12 05:54:00,35.2,30.6,29.93,NW,308,6.0,10.0,83,0.00,,---,0.00,0.00,VWS V14.00,2013-03-12 09:54:00,
2013-03-12 05:59:00,35.2,30.3,29.93,West,279,6.0,10.0,82,0.00,,---,0.00,0.00,VWS V14.00,2013-03-12 09:59:00,
2013-03-12 06:04:00,35.2,30.3,29.93,NW,309,5.0,12.0,82,0.00,,---,0.00,0.00,VWS V14.00,2013-03-12 10:04:00,
2013-03-12 06:09:00,35.2,30.6,29.94,West,267,8.0,11.0,83,0.00,,---,0.00,0.00,VWS V14.00,2013-03-12 10:09:00,
2013-03-12 06:14:00,35.2,30.3,29.94,West,271,7.0,12.0,82,0.00,,---,0.00,0.00,VWS V14.00,2013-03-12 10:14:00,
2013-03-12 06:19:00,35.3,30.4,29.94,WNW,291,5.0,12.0,82,0.00,,---,0.00,0.00,VWS V14.00,2013-03-12 10:19:00,
2013-03-12 06:24:00,35.2,30.3,29.94,NNW,327,8.0,10.0,82,0.00,,---,0.00,0.00,VWS V14.00,2013-03-12 10:24:00,
2013-03-12 06:29:00,35.2,30.3,29.94,West,261,7.0,13.0,82,0.00,,---,0.00,0.00,VWS V14.00,2013-03-12 10:29:00,
2013-03-12 06:34:00,35.2,30.3,29.94,WNW,300,7.0,9.0,82,0.00,,---,0.00,0.00,VWS V14.00,2013-03-12 10:34:00,
2013-03-12 06:39:00,35.2,30.3,29.95,WNW,303,5.0,9.0,82,0.00,,---,0.00,0.00,VWS V14.00,2013-03-12 10:39:00,
2013-03-12 06:44:00,35.2,30.3,29.95,NW,314,5.0,9.0,82,0.00,,---,0.00,0.00,VWS V14.00,2013-03-12 10:44:00,
2013-03-12 06:49:00,35.2,30.3,29.95,WNW,298,8.0,11.0,82,0.00,,---,0.00,0.00,VWS V14.00,2013-03-12 10:49:00,
2013-03-12 06:54:00,35.2,30.0,29.95,NW,326,16.0,16.0,81,0.00,,---,0.00,0.00,VWS V14.00,2013-03-12 10:54:00,
2013-03-12 06:59:00,35.1,29.9,29.95,NW,321,10.0,15.0,81,0.00,,---,0.00,0.00,VWS V14.00,2013-03-12 10:59:00,
2013-03-12 07:04:00,35.1,29.6,29.95,NW,315,6.0,12.0,80,0.00,,---,0.00,0.00,VWS V14.00,2013-03-12 11:04:00,
2013-03-12 07:09:00,35.1,29.6,29.95,WNW,297,8.0,10.0,80,0.00,,---,0.00,0.00,VWS V14.00,2013-03-12 11:09:00,
2013-03-12 07:14:00,35.1,29.9,29.95,West,279,5.0,8.0,81,0.00,,---,0.00,0.00,VWS V14.00,2013-03-12 11:14:00,
2013-03-12 07:19:00,35.1,29.9,29.95,West,276,5.0,9.0,81,0.00,,---,0.00,0.00,VWS V14.00,2013-03-12 11:19:00,
2013-03-12 07:24:00,35.1,29.6,29.96,West,281,3.0,11.0,80,0.00,,---,0.00,0.00,VWS V14.00,2013-03-12 11:24:00,
2013-03-12 07:29:00,35.1,29.6,29.96,WNW,296,5.0,8.0,80,0.00,,---,0.00,0.00,VWS V14.00,2013-03-12 11:29:00,
2013-03-12 07:34:00,35.1,29.9,29.96,WNW,292,2.0,7.0,81,0.00,,---,0.00,0.00,VWS V14.00,2013-03-12 11:34:00,
2013-03-12 07:39:00,35.1,29.9,29.96,WNW,294,6.0,12.0,81,0.00,,---,0.00,0.00,VWS V14.00,2013-03-12 11:39:00,
2013-03-12 07:44:00,35.1,29.9,29.96,West,270,3.0,9.0,81,0.00,,---,0.00,0.00,VWS V14.00,2013-03-12 11:44:00,
2013-03-12 07:49:00,35.0,30.1,29.97,West,263,4.0,9.0,82,0.00,,---,0.00,0.00,VWS V14.00,2013-03-12 11:49:00,
2013-03-12 07:54:00,34.9,30.0,29.97,West,272,3.0,7.0,82,0.00,,---,0.00,0.00,VWS V14.00,2013-03-12 11:54:00,
2013-03-12 07:59:00,34.9,30.3,29.97,NW,306,6.0,8.0,83,0.00,,---,0.00,0.00,VWS V14.00,2013-03-12 11:59:00,
2013-03-12 08:04:00,34.9,30.3,29.97,WNW,297,6.0,11.0,83,0.00,,---,0.00,5.00,VWS V14.00,2013-03-12 12:04:00,
2013-03-12 08:09:00,34.8,29.9,29.98,WNW,286,8.0,12.0,82,0.00,,---,0.00,7.00,VWS V14.00,2013-03-12 12:09:00,
2013-03-12 08:14:00,34.8,30.2,29.98,West,270,5.0,12.0,83,0.00,,---,0.00,7.00,VWS V14.00,2013-03-12 12:14:00,
2013-03-12 08:19:00,34.7,30.1,29.98,West,279,10.0,12.0,83,0.00,,---,0.00,9.00,VWS V14.00,2013-03-12 12:19:00,
2013-03-12 08:24:00,34.7,30.1,29.98,West,277,4.0,10.0,83,0.00,,---,0.00,7.00,VWS V14.00,2013-03-12 12:24:00,
2013-03-12 08:29:00,34.7,29.8,29.97,West,275,1.0,9.0,82,0.00,,---,0.00,7.00,VWS V14.00,2013-03-12 12:29:00,
2013-03-12 08:34:00,34.7,29.8,29.97,NW,306,6.0,12.0,82,0.00,,---,0.00,16.00,VWS V14.00,2013-03-12 12:34:00,
2013-03-12 08:39:00,34.7,29.8,29.98,WSW,253,9.0,10.0,82,0.00,,---,0.00,18.00,VWS V14.00,2013-03-12 12:39:00,
2013-03-12 08:44:00,34.7,29.8,29.99,West,277,4.0,12.0,82,0.00,,---,0.00,21.00,VWS V14.00,2013-03-12 12:44:00,
2013-03-12 08:49:00,34.8,29.6,29.99,NW,313,6.0,9.0,81,0.00,,---,0.00,25.00,VWS V14.00,2013-03-12 12:49:00,
2013-03-12 08:54:00,34.8,29.9,29.99,West,280,4.0,8.0,82,0.00,,---,0.00,32.00,VWS V14.00,2013-03-12 12:54:00,
2013-03-12 08:59:00,34.8,29.9,29.99,WNW,297,5.0,7.0,82,0.00,,---,0.00,33.00,VWS V14.00,2013-03-12 12:59:00,
2013-03-12 09:04:00,34.9,30.0,29.99,West,273,6.0,9.0,82,0.00,,---,0.00,42.00,VWS V14.00,2013-03-12 13:04:00,
2013-03-12 09:09:00,34.9,30.0,30.00,West,274,2.0,10.0,82,0.00,,---,0.00,44.00,VWS V14.00,2013-03-12 13:09:00,
2013-03-12 09:14:00,35.0,30.1,30.00,WNW,293,5.0,10.0,82,0.00,,---,0.00,51.00,VWS V14.00,2013-03-12 13:14:00,
2013-03-12 09:20:00,35.0,30.1,30.00,WSW,250,8.0,9.0,82,0.00,,---,0.00,46.00,VWS V14.00,2013-03-12 13:20:00,
2013-03-12 09:25:00,35.0,30.1,30.00,WNW,300,4.0,10.0,82,0.00,,---,0.00,44.00,VWS V14.00,2013-03-12 13:25:00,
2013-03-12 09:30:00,35.0,30.1,30.01,WNW,296,8.0,12.0,82,0.00,,---,0.00,42.00,VWS V14.00,2013-03-12 13:30:00,
2013-03-12 09:35:00,35.1,30.2,30.01,West,277,4.0,9.0,82,0.00,,---,0.00,49.00,VWS V14.00,2013-03-12 13:35:00,
2013-03-12 09:40:00,35.1,30.2,30.01,West,267,4.0,12.0,82,0.00,,---,0.00,53.00,VWS V14.00,2013-03-12 13:40:00,
2013-03-12 09:45:00,35.1,30.2,30.01,WNW,286,4.0,11.0,82,0.00,,---,0.00,67.00,VWS V14.00,2013-03-12 13:45:00,
2013-03-12 09:50:00,35.1,30.2,30.00,WNW,286,1.0,10.0,82,0.00,,---,0.00,76.00,VWS V14.00,2013-03-12 13:50:00,
2013-03-12 09:55:00,35.2,30.3,30.00,West,274,5.0,10.0,82,0.00,,---,0.00,84.00,VWS V14.00,2013-03-12 13:55:00,
2013-03-12 10:00:00,35.2,30.3,30.00,West,273,4.0,11.0,82,0.00,,---,0.00,97.00,VWS V14.00,2013-03-12 14:00:00,
2013-03-12 10:05:00,35.2,30.3,30.00,WNW,286,7.0,10.0,82,0.00,,---,0.00,109.00,VWS V14.00,2013-03-12 14:05:00,
2013-03-12 10:10:00,35.3,30.4,30.01,WNW,294,5.0,10.0,82,0.00,,---,0.00,114.00,VWS V14.00,2013-03-12 14:10:00,
2013-03-12 10:15:00,35.4,30.5,30.00,West,277,5.0,12.0,82,0.00,,---,0.00,113.00,VWS V14.00,2013-03-12 14:15:00,
2013-03-12 10:20:00,35.5,30.6,30.00,West,271,5.0,10.0,82,0.00,,---,0.00,105.00,VWS V14.00,2013-03-12 14:20:00,
2013-03-12 10:25:00,35.5,30.3,30.01,West,271,5.0,9.0,81,0.00,,---,0.00,116.00,VWS V14.00,2013-03-12 14:25:00,
2013-03-12 10:30:00,35.5,29.6,30.01,West,271,4.0,15.0,79,0.00,,---,0.00,104.00,VWS V14.00,2013-03-12 14:30:00,
2013-03-12 10:35:00,35.6,29.7,30.01,NW,317,13.0,14.0,79,0.00,,---,0.00,120.00,VWS V14.00,2013-03-12 14:35:00,
2013-03-12 10:40:00,35.7,29.2,30.01,WNW,286,7.0,15.0,77,0.00,,---,0.00,127.00,VWS V14.00,2013-03-12 14:40:00,
2013-03-12 10:45:00,35.7,29.2,30.02,West,261,9.0,13.0,77,0.00,,---,0.00,100.00,VWS V14.00,2013-03-12 14:45:00,
2013-03-12 10:50:00,35.7,29.2,30.02,WNW,298,9.0,15.0,77,0.00,,---,0.00,121.00,VWS V14.00,2013-03-12 14:50:00,
2013-03-12 10:55:00,35.8,29.3,30.02,West,273,6.0,11.0,77,0.00,,---,0.00,148.00,VWS V14.00,2013-03-12 14:55:00,
2013-03-12 11:00:00,35.8,29.3,30.02,WNW,299,8.0,14.0,77,0.00,,---,0.00,174.00,VWS V14.00,2013-03-12 15:00:00,
2013-03-12 11:05:00,36.0,29.5,30.01,WNW,302,9.0,10.0,77,0.00,,---,0.00,188.00,VWS V14.00,2013-03-12 15:05:00,
2013-03-12 11:10:00,36.0,29.2,30.01,WNW,300,9.0,14.0,76,0.00,,---,0.00,155.00,VWS V14.00,2013-03-12 15:10:00,
2013-03-12 11:15:00,36.0,28.9,30.02,NW,309,7.0,13.0,75,0.00,,---,0.00,111.00,VWS V14.00,2013-03-12 15:15:00,
2013-03-12 11:20:00,36.1,29.3,30.02,WSW,246,7.0,8.0,76,0.00,,---,0.00,102.00,VWS V14.00,2013-03-12 15:20:00,
2013-03-12 11:25:00,35.9,29.4,30.01,WSW,250,4.0,5.0,77,0.00,,---,0.00,118.00,VWS V14.00,2013-03-12 15:25:00,
2013-03-12 11:30:00,35.9,29.7,30.01,West,276,3.0,4.0,78,0.00,,---,0.00,107.00,VWS V14.00,2013-03-12 15:30:00,
2013-03-12 11:35:00,35.9,30.0,30.01,WSW,244,7.0,7.0,79,0.00,,---,0.00,109.00,VWS V14.00,2013-03-12 15:35:00,
2013-03-12 11:40:00,35.9,30.0,30.01,WNW,284,4.0,6.0,79,0.00,,---,0.00,181.00,VWS V14.00,2013-03-12 15:40:00,
2013-03-12 11:45:00,36.0,30.1,30.01,West,262,4.0,5.0,79,0.00,,---,0.00,195.00,VWS V14.00,2013-03-12 15:45:00,
2013-03-12 11:50:00,36.2,30.3,30.01,WSW,257,4.0,4.0,79,0.00,,---,0.00,183.00,VWS V14.00,2013-03-12 15:50:00,
2013-03-12 11:55:00,36.3,30.1,30.02,West,259,4.0,7.0,78,0.00,,---,0.00,169.00,VWS V14.00,2013-03-12 15:55:00,
2013-03-12 12:00:00,36.4,30.2,30.01,West,269,8.0,10.0,78,0.00,,---,0.00,169.00,VWS V14.00,2013-03-12 16:00:00,
2013-03-12 12:05:00,36.4,30.2,30.02,WNW,286,4.0,7.0,78,0.00,,---,0.00,163.00,VWS V14.00,2013-03-12 16:05:00,
2013-03-12 12:10:00,36.5,30.3,30.02,West,274,7.0,10.0,78,0.00,,---,0.00,174.00,VWS V14.00,2013-03-12 16:10:00,
2013-03-12 12:15:00,36.5,30.3,30.02,WNW,302,7.0,7.0,78,0.00,,---,0.00,153.00,VWS V14.00,2013-03-12 16:15:00,
2013-03-12 12:20:00,36.6,30.7,30.02,West,260,10.0,10.0,79,0.00,,---,0.00,148.00,VWS V14.00,2013-03-12 16:20:00,
2013-03-12 12:25:00,36.6,30.4,30.02,WNW,298,7.0,12.0,78,0.00,,---,0.00,146.00,VWS V14.00,2013-03-12 16:25:00,
2013-03-12 12:30:00,36.6,30.4,30.02,WSW,241,6.0,6.0,78,0.00,,---,0.00,144.00,VWS V14.00,2013-03-12 16:30:00,
2013-03-12 12:35:00,36.5,30.0,30.03,WSW,248,7.0,7.0,77,0.00,,---,0.00,141.00,VWS V14.00,2013-03-12 16:35:00,
2013-03-12 12:40:00,36.5,30.3,30.03,West,273,7.0,8.0,78,0.00,,---,0.00,169.00,VWS V14.00,2013-03-12 16:40:00,
2013-03-12 12:45:00,36.6,30.4,30.03,WNW,292,10.0,10.0,78,0.00,,---,0.00,174.00,VWS V14.00,2013-03-12 16:45:00,
2013-03-12 12:50:00,36.6,30.4,30.04,NW,304,14.0,14.0,78,0.00,,---,0.00,162.00,VWS V14.00,2013-03-12 16:50:00,
2013-03-12 12:55:00,36.5,30.3,30.04,West,277,6.0,8.0,78,0.00,,---,0.00,190.00,VWS V14.00,2013-03-12 16:55:00,
2013-03-12 13:00:00,36.8,30.6,30.04,WSW,247,7.0,10.0,78,0.00,,---,0.00,223.00,VWS V14.00,2013-03-12 17:00:00,
2013-03-12 13:05:00,37.0,30.5,30.03,WSW,250,7.0,7.0,77,0.00,,---,0.00,211.00,VWS V14.00,2013-03-12 17:05:00,
2013-03-12 13:10:00,37.2,30.4,30.03,NW,308,5.0,5.0,76,0.00,,---,0.00,172.00,VWS V14.00,2013-03-12 17:10:00,
2013-03-12 13:15:00,37.4,30.5,30.03,West,268,4.0,6.0,76,0.00,,---,0.00,178.00,VWS V14.00,2013-03-12 17:15:00,
2013-03-12 13:20:00,37.4,30.5,30.03,SW,231,6.0,6.0,76,0.00,,---,0.00,260.00,VWS V14.00,2013-03-12 17:20:00,
2013-03-12 13:25:00,37.5,30.6,30.03,WSW,254,6.0,10.0,76,0.00,,---,0.00,202.00,VWS V14.00,2013-03-12 17:25:00,
2013-03-12 13:30:00,37.6,30.4,30.03,WSW,240,4.0,10.0,75,0.00,,---,0.00,220.00,VWS V14.00,2013-03-12 17:30:00,
2013-03-12 13:36:00,37.7,30.5,30.03,WNW,286,4.0,9.0,75,0.00,,---,0.00,283.00,VWS V14.00,2013-03-12 17:36:00,
2013-03-12 13:41:00,37.9,30.7,30.03,WNW,284,6.0,7.0,75,0.00,,---,0.00,353.00,VWS V14.00,2013-03-12 17:41:00,
2013-03-12 13:46:00,38.2,30.3,30.03,West,266,10.0,12.0,73,0.00,,---,0.00,359.00,VWS V14.00,2013-03-12 17:46:00,
2013-03-12 13:51:00,38.4,30.2,30.03,West,271,4.0,12.0,72,0.00,,---,0.00,417.00,VWS V14.00,2013-03-12 17:51:00,
2013-03-12 13:56:00,38.8,30.9,30.03,NW,316,10.0,14.0,73,0.00,,---,0.00,359.00,VWS V14.00,2013-03-12 17:56:00,
2013-03-12 14:01:00,39.2,31.0,30.03,WNW,301,11.0,13.0,72,0.00,,---,0.00,322.00,VWS V14.00,2013-03-12 18:01:00,
2013-03-12 14:06:00,39.1,30.9,30.03,NW,319,8.0,10.0,72,0.00,,---,0.00,285.00,VWS V14.00,2013-03-12 18:06:00,
2013-03-12 14:11:00,39.3,31.0,30.02,WNW,296,9.0,9.0,72,0.00,,---,0.00,341.00,VWS V14.00,2013-03-12 18:11:00,
2013-03-12 14:16:00,39.7,31.1,30.02,West,279,10.0,14.0,71,0.00,,---,0.00,526.00,VWS V14.00,2013-03-12 18:16:00,
2013-03-12 14:21:00,40.1,31.5,30.02,NW,317,9.0,15.0,71,0.00,,---,0.00,353.00,VWS V14.00,2013-03-12 18:21:00,
2013-03-12 14:26:00,40.2,31.6,30.02,NW,316,9.0,13.0,71,0.00,,---,0.00,383.00,VWS V14.00,2013-03-12 18:26:00,
2013-03-12 14:31:00,40.5,32.2,30.02,West,259,7.0,8.0,72,0.00,,---,0.00,461.00,VWS V14.00,2013-03-12 18:31:00,
2013-03-12 14:40:00,41.2,31.8,30.01,West,267,9.0,14.0,69,0.00,,---,0.00,455.00,VWS V14.00,2013-03-12 18:40:00,
2013-03-12 14:45:00,41.1,31.4,30.00,West,281,9.0,16.0,68,0.00,,---,0.00,332.00,VWS V14.00,2013-03-12 18:45:00,
2013-03-12 14:50:00,41.1,31.7,30.00,NW,306,5.0,10.0,69,0.00,,---,0.00,295.00,VWS V14.00,2013-03-12 18:50:00,
2013-03-12 14:56:00,41.3,31.5,30.00,West,267,8.0,10.0,68,0.00,,---,0.00,292.00,VWS V14.00,2013-03-12 18:56:00,
2013-03-12 15:05:00,42.0,32.6,30.00,WNW,293,12.0,13.0,69,0.00,,---,0.00,343.00,VWS V14.00,2013-03-12 19:05:00,
2013-03-12 15:15:00,41.3,31.9,30.00,NW,311,6.0,14.0,69,0.00,,---,0.00,330.00,VWS V14.00,2013-03-12 19:15:00,
2013-03-12 15:20:00,41.6,32.2,29.99,West,261,11.0,18.0,69,0.00,,---,0.00,362.00,VWS V14.00,2013-03-12 19:20:00,
2013-03-12 15:27:00,41.8,32.0,30.00,WNW,296,6.0,9.0,68,0.00,,---,0.00,406.00,VWS V14.00,2013-03-12 19:27:00,
2013-03-12 15:35:00,42.1,31.6,30.00,WNW,296,4.0,20.0,66,0.00,,---,0.00,225.00,VWS V14.00,2013-03-12 19:35:00,
2013-03-12 15:45:00,42.1,32.0,30.00,WNW,296,8.0,16.0,67,0.00,,---,0.00,290.00,VWS V14.00,2013-03-12 19:45:00,
2013-03-12 15:57:00,42.6,32.8,30.00,WSW,246,6.0,8.0,68,0.00,,---,0.00,267.00,VWS V14.00,2013-03-12 19:57:00,
2013-03-12 16:02:00,42.9,32.3,30.00,WNW,293,9.0,13.0,66,0.00,,---,0.00,232.00,VWS V14.00,2013-03-12 20:02:00,
2013-03-12 16:25:00,42.6,32.0,30.00,NW,306,10.0,14.0,66,0.00,,---,0.00,276.00,VWS V14.00,2013-03-12 20:25:00,
2013-03-12 16:35:00,42.7,32.2,30.00,West,269,8.0,14.0,66,0.00,,---,0.00,251.00,VWS V14.00,2013-03-12 20:35:00,
2013-03-12 16:45:00,43.1,32.2,30.00,West,277,4.0,20.0,65,0.00,,---,0.00,299.00,VWS V14.00,2013-03-12 20:45:00,
2013-03-12 17:15:00,44.4,32.2,30.00,NW,325,8.0,11.0,62,0.00,,---,0.00,608.00,VWS V14.00,2013-03-12 21:15:00,
2013-03-12 17:20:00,44.8,32.6,30.00,West,274,5.0,12.0,62,0.00,,---,0.00,557.00,VWS V14.00,2013-03-12 21:20:00,
2013-03-12 17:30:00,44.7,31.7,30.00,West,281,6.0,14.0,60,0.00,,---,0.00,364.00,VWS V14.00,2013-03-12 21:30:00,
2013-03-12 17:40:00,44.5,31.5,30.00,NW,306,8.0,12.0,60,0.00,,---,0.00,172.00,VWS V14.00,2013-03-12 21:40:00,
2013-03-12 17:45:00,44.5,31.9,30.00,West,263,3.0,14.0,61,0.00,,---,0.00,480.00,VWS V14.00,2013-03-12 21:45:00,
2013-03-12 17:57:00,45.4,31.9,29.99,NW,304,7.0,10.0,59,0.00,,---,0.00,274.00,VWS V14.00,2013-03-12 21:57:00,
2013-03-12 18:02:00,45.6,32.5,29.99,WNW,294,8.0,9.0,60,0.00,,---,0.00,417.00,VWS V14.00,2013-03-12 22:02:00,
2013-03-12 18:12:00,45.4,31.5,29.99,WNW,302,5.0,8.0,58,0.00,,---,0.00,76.00,VWS V14.00,2013-03-12 22:12:00,
2013-03-12 18:17:00,45.1,31.6,29.99,WNW,285,5.0,9.0,59,0.00,,---,0.00,128.00,VWS V14.00,2013-03-12 22:17:00,
2013-03-12 18:22:00,45.0,31.5,29.99,West,276,6.0,11.0,59,0.00,,---,0.00,292.00,VWS V14.00,2013-03-12 22:22:00,
2013-03-12 18:55:00,44.7,30.9,30.00,WNW,292,10.0,14.0,58,0.00,,---,0.00,40.00,VWS V14.00,2013-03-12 22:55:00,
2013-03-12 19:00:00,44.6,30.8,30.00,WNW,287,9.0,18.0,58,0.00,,---,0.00,51.00,VWS V14.00,2013-03-12 23:00:00,
2013-03-12 19:05:00,44.5,30.7,30.00,NW,306,6.0,9.0,58,0.00,,---,0.00,35.00,VWS V14.00,2013-03-12 23:05:00,
2013-03-12 19:25:00,44.1,30.7,30.00,West,269,4.0,10.0,59,0.00,,---,0.00,12.00,VWS V14.00,2013-03-12 23:25:00,
2013-03-12 19:32:00,43.9,30.9,30.00,West,277,5.0,8.0,60,0.00,,---,0.00,5.00,VWS V14.00,2013-03-12 23:32:00,
2013-03-12 19:37:00,43.9,30.9,30.00,WNW,293,6.0,8.0,60,0.00,,---,0.00,0.00,VWS V14.00,2013-03-12 23:37:00,
2013-03-12 19:42:00,43.9,30.9,30.01,WSW,254,5.0,8.0,60,0.00,,---,0.00,0.00,VWS V14.00,2013-03-12 23:42:00,
2013-03-12 20:20:00,43.5,31.0,30.01,WNW,300,6.0,9.0,61,0.00,,---,0.00,0.00,VWS V14.00,2013-03-13 00:20:00,
2013-03-12 20:25:00,43.4,31.3,30.02,WNW,297,4.0,7.0,62,0.00,,---,0.00,0.00,VWS V14.00,2013-03-13 00:25:00,
2013-03-12 20:32:00,43.4,31.3,30.02,WNW,294,4.0,7.0,62,0.00,,---,0.00,0.00,VWS V14.00,2013-03-13 00:32:00,
2013-03-12 20:45:00,43.3,30.8,30.02,WNW,289,7.0,10.0,61,0.00,,---,0.00,0.00,VWS V14.00,2013-03-13 00:45:00,
2013-03-12 20:52:00,43.2,30.7,30.02,WNW,295,4.0,9.0,61,0.00,,---,0.00,0.00,VWS V14.00,2013-03-13 00:52:00,
2013-03-12 21:00:00,43.2,30.7,30.02,WNW,293,10.0,12.0,61,0.00,,---,0.00,0.00,VWS V14.00,2013-03-13 01:00:00,
2013-03-12 21:05:00,43.1,31.0,30.03,NW,319,5.0,11.0,62,0.00,,---,0.00,0.00,VWS V14.00,2013-03-13 01:05:00,
2013-03-12 21:12:00,42.9,30.4,30.03,NW,304,14.0,16.0,61,0.00,,---,0.00,0.00,VWS V14.00,2013-03-13 01:12:00,
2013-03-12 21:18:00,42.8,30.3,30.03,NNW,342,7.0,15.0,61,0.00,,---,0.00,0.00,VWS V14.00,2013-03-13 01:18:00,
2013-03-12 21:53:00,41.9,29.0,30.04,NW,323,4.0,6.0,60,0.00,,---,0.00,0.00,VWS V14.00,2013-03-13 01:53:00,
2013-03-12 21:58:00,41.7,28.9,30.04,WNW,303,1.0,8.0,60,0.00,,---,0.00,0.00,VWS V14.00,2013-03-13 01:58:00,
2013-03-12 22:03:00,41.5,29.1,30.03,NW,314,6.0,7.0,61,0.00,,---,0.00,0.00,VWS V14.00,2013-03-13 02:03:00,
2013-03-12 22:33:00,40.3,28.3,30.04,WNW,292,4.0,6.0,62,0.00,,---,0.00,0.00,VWS V14.00,2013-03-13 02:33:00,
2013-03-12 23:00:00,39.9,28.3,30.05,WNW,298,6.0,8.0,63,0.00,,---,0.00,0.00,VWS V14.00,2013-03-13 03:00:00,
2013-03-12 23:08:00,40.0,28.4,30.05,NW,311,7.0,9.0,63,0.00,,---,0.00,0.00,VWS V14.00,2013-03-13 03:08:00,
2013-03-12 23:13:00,40.0,28.8,30.05,WSW,257,7.0,9.0,64,0.00,,---,0.00,0.00,VWS V14.00,2013-03-13 03:13:00,
2013-03-12 23:18:00,40.0,28.8,30.06,NW,306,16.0,28.0,64,0.00,,---,0.00,0.00,VWS V14.00,2013-03-13 03:18:00,
2013-03-12 23:23:00,38.6,31.7,30.07,NW,319,9.0,26.0,76,0.00,,---,0.00,0.00,VWS V14.00,2013-03-13 03:23:00,
2013-03-12 23:43:00,36.3,32.5,30.07,NW,319,9.0,16.0,86,0.00,,---,0.00,0.00,VWS V14.00,2013-03-13 03:43:00,
2013-03-12 23:53:00,35.7,32.2,30.08,NW,306,9.0,14.0,87,0.00,,---,0.00,0.00,VWS V14.00,2013-03-13 03:53:00,